Location: Poughquag
(41.6090°N, 73.6820°W)
Time: 18:09:03
(UTC-05:00)

Altair - Pass Details

Date: 30 November 2023
Orbit: 1501 x 1682 km, 47.2° (Epoch: 01 March)

Event Time Altitude Azimuth Distance (km) Brightness Sun altitude
Rises 12:10:01 0° 275° (W) 4,741 10.1 26.4°
Reaches altitude 10° 12:13:11 10° 279° (W) 3,734 9.6 26.3°
Maximum altitude 12:22:29 62° 359° (N) 1,681 7.8 26.1°
Drops below altitude 10° 12:31:35 10° 80° (E) 3,654 9.3 25.7°
Sets 12:34:39 0° 84° (E) 4,633 9.8 25.6°
